Погода в Вязьме

Поиск расширенной информации на нашем сайте:

Полезная информация:

Новости сайта



02.01.2020
Опубликован Долгосрочный прогноз погоды по городам России и ближнего зарубежья на январь 2020 года.
Карты: Прогноз на январь и февраль 2020 года, Сравнение прогнозируемой аномалии приземной температуры воздуха на январь 2020 года по разным моделям.




Погода в Вязьме - сегодня

Время (UTC), дата Ветер
(°,м/с) 
Видим.   Явления Облачность Т
(°С)
Тd
(°С)
f(%) Тe
(°С)
Pmin
(гПа)
dP
(гПа)
Po
(мм)
O2
(г/м3)
Тmin Tmax R s Состояние
почвы
21 22.10.20 220 (ЮЗ) 10 км    10/0 средняя 
[Ac und]
+10.3 +8.6 89 +9  1006.1  -1.2  733  283           
00 23.10.20 250 (З) 4{11}  10 км    10/10 300 м 
[Sc]
+11.4 +9.5 88 +12  1006.5  0.5  733  282           
03 23.10.20 250 (З) 4{10}  10 км    10/10 300 м 
[Sc]
+12 +8.3 78 +11  1007.8  1.2  734  282  +6.9         
06 23.10.20 230 (ЮЗ) 10 км    9/3 300 м средняя, верхняя 
[Sc|Ac trans|Ci fib]
+11.3 +8.3 82 +10  1008.4  0.6  734  283  +8.5         
09 23.10.20 240 (ЮЗ) 10 км    4/1 600 м средняя, верхняя 
[Sc|Ac trans|Ci fib]
+14.2 +8.6 69 +14  1007.5  -0.7  734  280           
12 23.10.20 230 (ЮЗ) 5{12}  10 км    6/3 600 м средняя, верхняя 
[Sc|Ac trans|Ci fib]
+14.6 +9.8 73 +15  1005.6  -1.7  733  278           
15 23.10.20 230 (ЮЗ) 5{11}  10 км  {ливн. осадки}  4/4 300 м 
[Sc]
+12.4 +10 85 +14  1004.9  -0.9  732  280      0.5     
18 23.10.20 240 (ЮЗ) 4{12}  10 км  {ливн. осадки}  ясно 
+11.3 +9 86 +11  1005.5  0.5  732  282    +15.3  0.8     
21 23.10.20 250 (З) 10 км    ясно 
+10.4 +8.2 86 +10  1006.4  0.8  733  283           
00 24.10.20 250 (З) 10 км  дымка  4/4 1000 м 
[Sc]
+8.6 +7.3 92 +8  1007.7  734  285           
03 24.10.20 250 (З) 10 км  дымка  1/1 1000 м 
[Sc]
+7.1 +5.9 92 +6  1009.1  1.2  734  287  +7.1    0.3     
06 24.10.20 260 (З) 4000 м  дымка  6/6 600 м 
[Sc]
+7.4 +6.4 93 +7  1009.8  0.7  735  287  +5.8         
09 24.10.20 260 (З) 10 км    8/8 600 м 
[Sc]
+9.7 +5.9 77 +9  1010  0.5  735  285           
12 24.10.20 220 (ЮЗ) 10 км    10/10 600 м 
[Sc]
+9.9 +6.4 79 +10  1010  0.1  735  285           
15 24.10.20 230 (ЮЗ) 4000 м  дымка{ливн. осадки}  10/10 600 м кучево-дожд. 
[Cb calv]
+8.5 +7.6 94 +9  1009.9  -0.2  735  286      0.8     
18 24.10.20 230 (ЮЗ) 4000 м  слаб. дождь{ливн. осадки}  10/8 300 м средняя 
[Frnb|As op]
+8.2 +7.4 95 +8  1009.8  -0.1  735  286    +10.6     
21 24.10.20 260 (З) 4000 м  дымка{дождь}  10/10 300 м 
[St]
+8.1 +7.2 94 +9  1009.5  -0.3  735  286           
00 25.10.20 260 (З) 4000 м  дымка{ливн. осадки, дождь}  9/9 300 м 
[Sc]
+7.6 +6.9 95 +9  1010.2  0.6  735  287           
03 25.10.20 260 (З) 4000 м  дымка  9/9 300 м 
[Sc]
+7.8 +6.9 94 +8  1010.9  0.7  736  287  +7.3    0.7     
06 25.10.20 260 (З) 4000 м  дымка  9/9 300 м 
[Sc]
+8 +6.8 92 +8  1013  2.1  737  287  +7.2    0.3     
09 25.10.20 260 (З) 10 км    9/9 600 м 
[Sc]
+10.4 +7 79 +10  1014  1.2  738  285           
12 25.10.20 280 (З) 10 км    9/9 600 м 
[Sc]
+9.7 +6.7 82 +9  1015.9  1.8  740  287           
15 25.10.20 270 (З) 4000 м  дымка  8/6 300 м средняя 
[Sc|Ac trans]
+6.6 +5.5 93 +8  1017.6  1.3  741  290           
18 25.10.20 250 (З) 10 км    10/0 средняя 
[Ac und]
+8.5 +5.8 83 +9  1018.7  1.3  742  289    +10.6       
21 25.10.20 270 (З) 10 км    10/0 средняя 
[Ac und]
+7.9 +5.6 85 +9  1020.1  1.2  743  290           
Время (UTC), дата Ветер
(°,м/с) 
Видим.   Явления Облачность Т
(°С)
Тd
(°С)
f(%) Тe
(°С)
Pmin
(гПа)
dP
(гПа)
Po
(мм)
O2
(г/м3)
Тmin Tmax R s Состояние
почвы

Для получения пояснительной информации подведите курсор к названию столбца.

ПОГОДА в Вязьме - архив

Всё, что Вы хотите узнать о погоде в Вязьме - удобно и подробно!

Выберите нужную дату (начиная с 1 января 2019* года) и нажмите кнопку "Найти".
Будут отображены архивные сводки погоды по пункту Вязьма, начиная с указанной даты.


Отображать данные в формате CSV (для использования в таблицах Excel)


Внимание! Наш архив погоды предназначен исключительно для личного некоммерческого использования в познавательных целях. Если Вам необходимы официальные справки о состоянии погоды (для производственных, юридических, коммерческих и т.п. целей), обращайтесь в органы Росгидромета.

*Примечание: данная дата относится к архиву по метеостанциям СССР (Россия, СНГ, Балтия).
Архив по метеостанциям Зарубежной Европы и Азии (кроме Китая) хранится 10 дней, по другим регионам земного шара (Китай, Африка, Америка, Австралия, Океания) - 1 день.

Вязьма - район местоположения метеостанции


Название, широта, долгота, высота метеостанции:
Вязьма 55.2°ш. 34.4°д. 251 м над ур. моря [Российская Федерация]

Дополнительная информация

В oтличие oт бoльшинства пoгoдных сайтoв мы публикуем пoдрoбную метеoинфoрмацию в детальнoм прoфессиoнальнoм фoрмате.

Характеристики температуры и влажнoсти вoздуха измеряются на высoте 2 м в тени вдали oт зданий и деревьев.
Скoрoсть ветра измеряется на высoте 10 м (на урoвне рoста челoвека скoрoсть ветра ниже в 1.5-2 раза). Если метеoстанция нахoдится в гoрoде или в лесу, тo скoрoсть ветра занижена на 2-4 м/с пo сравнению с oткрытым местoм. Скoрoсть ветра над акватoриями крупных рек и oзёр, а также на вершинах хoлмoв на 2-5 м/с выше, чем в oбычных услoвиях.
Атмoсфернoе давление в разных тoчках местнoсти мoжет значительнo oтличаться oт давления на метеoстанции, в зависимoсти oт услoвий рельефа (при пoдъёме на 10 м давление пoнижается примернo на 1 мм рт.ст.).